Regional Weather Roundup
Issued by NWS

Home | Current Version | Previous Version | Text Only | Print | Product List | Glossary Off
Versions: 1 2 3 4 5 6 7 8 9 10 11 12 13 14 15 16 17 18 19 20 21 22 23 24 25 26 27 28 29 30 31 32 33 34 35 36 37 38 39 40 41 42 43 44 45 46 47 48 49 50

000
ASUS45 KBOI 221210
RWRID

IDAHO REGIONAL WEATHER ROUNDUP
NATIONAL WEATHER SERVICE BOISE ID
600 AM MDT SUN OCT 22 2017

NOTE: "FAIR" INDICATES FEW OR NO CLOUDS BELOW 12000 FEET
WITH NO SIGNIFICANT WEATHER AND/OR OBSTRUCTIONS TO VISIBILITY

IDZ012-014-221300-
SOUTHWEST IDAHO


CITY           SKY/WX    TMP DP  RH WIND       PRES   REMARKS
BOISE          CLOUDY    48  39  71 SE15      30.20S
CALDWELL       CLOUDY    49  42  77 E14       30.17S
MOUNTAIN HOME  CLOUDY    44  44 100 E13       30.22S
$$

IDZ016-017-221300-
SOUTHCENTRAL IDAHO


CITY           SKY/WX    TMP DP  RH WIND       PRES   REMARKS
BURLEY         PTCLDY    45  36  70 S18       30.24S
JEROME         PTCLDY    39  39 100 E6        30.25R WCI  35
TWIN FALLS     PTCLDY    46  38  73 S17       30.22F
$$

IDZ019>023-221300-
SOUTHEAST IDAHO


CITY           SKY/WX    TMP DP  RH WIND       PRES   REMARKS
IDAHO FALLS    CLOUDY    46  36  68 S18       30.23R
POCATELLO      CLOUDY    50  34  54 S13       30.25S
REXBURG        CLOUDY    40  34  79 S12       30.21R WCI  33
$$

IDZ006-010-011-018-031-032-221300-
CENTRAL IDAHO MOUNTAINS


CITY           SKY/WX    TMP DP  RH WIND       PRES   REMARKS
MCCALL         CLOUDY    43  38  82 SE13G24   30.11S
HAILEY         MOCLDY    32  32 100 CALM      30.28R
STANLEY          N/A     39  36  89 VRB7      30.20S WCI  34
SALMON         CLOUDY    41  36  82 N5        30.07S
CHALLIS        CLOUDY    39  33  79 W3        30.11R
$$

IDZ002-004-006-007-026-221300-
NORTHERN IDAHO


CITY           SKY/WX    TMP DP  RH WIND       PRES   REMARKS
LEWISTON       CLOUDY    57  46  66 S22       29.87R
LOWELL           N/A     42  41  96 VRB3      29.97S
COEUR D`ALENE  RAIN      51  48  89 S9        29.76S
MULLAN PASS    RAIN      34  33  96 SW16G28   29.78F FOG     WCI  24
$$



USA.gov is the U.S. government's official web portal to all federal, state and local government web resources and services.